Regional Weather Roundup
Issued by NWS Portland, ME

Home | Current Version | Previous Version | Text Only | Print | Product List | Glossary On
Versions: 1 2 3 4 5 6 7 8 9 10 11 12 13 14 15 16 17 18 19 20 21 22 23 24 25 26 27 28 29 30 31 32 33 34 35 36 37 38 39 40 41 42 43 44 45 46 47 48 49 50
879
ASUS41 KGYX 252210
RWRGYX
WEATHER ROUNDUP FOR MAINE AND NEW HAMPSHIRE
NATIONAL WEATHER SERVICE GRAY ME
600 PM EDT TUE APR 25 2017

MEZ002-005-006-010-012-015-018-020-021-024-026-027-029-252300-
MAINE

CITY           SKY/WX    TMP DP  RH WIND       PRES   REMARKS
PORTLAND       LGT RAIN  43  40  89 NE13      30.30S FOG
SANFORD        LGT RAIN  42  41  96 NE12      30.28S FOG
BAR HARBOR     CLOUDY    47  34  60 E7        30.35F
WISCASSET      LGT RAIN  46  40  79 E7        30.33F
ROCKLAND       CLOUDY    45  37  73 E12       30.33F
FRYEBURG       CLOUDY    45  43  93 N5        30.29F FOG
LEWISTONAUBURN LGT RAIN  44  41  89 CALM      30.31S
AUGUSTA        CLOUDY    48  34  58 E6        30.32F
WATERVILLE     CLOUDY    50  34  54 VRB3      30.30F
BANGOR         CLOUDY    52  35  52 SE6       30.34F
GREENVILLE       N/A     42  42 100 VRB3      30.29S
MILLINOCKET    CLOUDY    54  34  46 CALM      30.34S
HOULTON        MOSUNNY   55  29  36 S5        30.33F
PRESQUE ISLE   CLOUDY    53  27  36 SE10      30.33F
FRENCHVILLE    MOSUNNY   49  22  34 SE9       30.30F
CARIBOU        CLOUDY    53  27  36 SE9       30.31F
$$

NHZ002-005-008-009-011-012-014-252300-
NEW HAMPSHIRE

CITY           SKY/WX    TMP DP  RH WIND       PRES   REMARKS
PORTSMOUTH     LGT RAIN  43  42  94 NE10      30.24F FOG
ROCHESTER      LGT RAIN  42  40  92 NE9       30.25F FOG
NASHUA         RAIN      46  45  96 NE9       30.21F FOG
MANCHESTER     LGT RAIN  45  41  86 NE9       30.21F FOG
CONCORD        RAIN      46  43  89 E7        30.23S FOG
LACONIA        LGT RAIN  45  43  93 NE12      30.25F FOG
PLYMOUTH       DRIZZLE   46  43  88 SE6       30.24S
BERLIN         LGT RAIN  47  40  76 SE8       30.25F
WHITEFIELD     LGT RAIN  47  40  76 CALM      30.20F
JAFFREY        LGT RAIN  45  45 100 NE8       30.17F
KEENE          LGT RAIN  47  44  90 N7        30.16F
LEBANON        LGT RAIN  49  44  83 CALM      30.19F
MT WASHINGTON  LGT RAIN  34  34 100 SE52G59     N/A  VSB 1/16WCI  17
$$

VTZ005-007-008-252300-
VERMONT

CITY           SKY/WX    TMP DP  RH WIND       PRES   REMARKS
ST JOHNSBURY     N/A     50  46  86 MISG      30.18F
MONTPELIER     LGT RAIN  47  41  80 S9        30.22F
BURLINGTON     CLOUDY    55  45  68 S8        30.14F
$$

MAZ007-012-024-CTZ003-RIZ002-NYZ038-NYZ072-252300-
SOUTHERN NEW ENGLAND AND NY

CITY           SKY/WX    TMP DP  RH WIND       PRES   REMARKS
BOSTON         LGT RAIN  46  45  96 NE21      30.18F FOG
WORCESTER      LGT RAIN  43  42  97 NE12G21   30.13F VSB 1/2
NANTUCKET      LGT RAIN  52  50  93 E21G32    30.08F FOG
PROVIDENCE     LGT RAIN  50  49  96 N13       30.11F FOG
HARTFORD       RAIN      49  48  97 N13       30.10F FOG
ALBANY         LGT RAIN  54  48  80 NE8G18    30.07F
NEW YORK CITY  LGT RAIN  54  51  90 NE25G37   29.93F FOG
$$

ANZ081-ANZ082-ANZ150-NHZ014-MEZ023>029-252300-
COASTAL MARINE OBSERVATIONS

STATION/POSITION TIME  TEMP    WIND        PRES    WAVE
                       AIR SEA DIR/SP/G            HT/PER
                 (UTC) (F)     (DEG/KT/KT) (MB)    (FT/S)
MOUNT DESERT ROC 2200   41                 1026.7F
MATINICUS ROCK   2200   41      80/ 23/ 25 1025.4F
ISLE OF SHOALS   2200   43      40/ 19/ 23 1023.5S
JEFFREYS LEDGE   2106      44                N/A     6/ 5
CASHES LEDGE BUO 2150   43 43              1024.7F   5/ 5
GEORGES BANK BUO 2050   46 42              1023.5    4/12
$$

.............KEY..............
   WCI - WIND CHILL
   TC  - TEMPERATURE IN CELSIUS
   VSB - VISIBILITY IN MILES
   HX  - HEAT INDEX
   FAIR- INDICATES FEW OR NO CLOUDS BELOW 12,000 FT, WITH NO
         SIGNIFICANT WEATHER AND/OR OBSTRUCTIONS TO VISIBILITY.






USA.gov is the U.S. government's official web portal to all federal, state and local government web resources and services.